When you browse on this site, cookies collect data to enhance your experience and personalize the content and advertising you see.
Visit our Privacy Policy to learn more. By continuing to use the site, you agree to this use of cookies and data.
  • In United Kingdom
  • List of Countries
  • For 7 days
  • Water Temperature
  • Weather Map
  • Weather Widgets
  • user-avatar
    Login

    Hourly Weather Sarvar

    Today, 18 September, Wednesday

    Time Temperature Precipitation Wind Pressure Humidity
    00:00 +16°C° 0 mm 6 mps 747 mmHg 67%
    01:00 +15°C° 0 mm 5 mps 747 mmHg 68%
    02:00 +14°C° 0 mm 5 mps 748 mmHg 68%
    03:00 +14°C° 0 mm 6 mps 748 mmHg 67%
    04:00 +13°C° 0 mm 6 mps 748 mmHg 67%
    05:00 +12°C° 0 mm 7 mps 749 mmHg 62%
    06:00 +12°C° 0 mm 8 mps 750 mmHg 57%
    07:00 +12°C° 0 mm 9 mps 751 mmHg 52%
    08:00 +13°C° 0 mm 8 mps 751 mmHg 47%
    09:00 +15°C° 0 mm 8 mps 752 mmHg 42%
    10:00 +16°C° 0 mm 8 mps 752 mmHg 37%
    11:00 +17°C° 0 mm 7 mps 752 mmHg 33%
    12:00 +19°C° 0 mm 6 mps 752 mmHg 30%
    13:00 +20°C° 0 mm 5 mps 752 mmHg 26%
    14:00 +19°C° 0 mm 4 mps 752 mmHg 28%
    15:00 +19°C° 0 mm 4 mps 751 mmHg 30%
    16:00 +19°C° 0 mm 3 mps 751 mmHg 31%
    17:00 +17°C° 0 mm 3 mps 751 mmHg 40%
    18:00 +15°C° 0 mm 2 mps 751 mmHg 49%
    19:00 +13°C° 0 mm 2 mps 752 mmHg 58%
    20:00 +13°C° 0 mm 1 mps 752 mmHg 60%
    21:00 +12°C° 0 mm 1 mps 752 mmHg 61%
    22:00 +12°C° 0 mm 1 mps 752 mmHg 63%
    23:00 +11°C° 0 mm 1 mps 752 mmHg 63%

    Tomorrow, 19 September, Thursday

    Time Temperature Precipitation Wind Pressure Humidity
    00:00 +11°C° 0 mm 1 mps 752 mmHg 63%
    01:00 +9°C° 0 mm 2 mps 753 mmHg 64%
    02:00 +9°C° 0 mm 2 mps 753 mmHg 66%
    03:00 +8°C° 0 mm 2 mps 753 mmHg 68%
    04:00 +8°C° 0 mm 2 mps 753 mmHg 70%
    05:00 +9°C° 0 mm 3 mps 753 mmHg 68%
    06:00 +9°C° 0 mm 3 mps 753 mmHg 65%
    07:00 +10°C° 0 mm 3 mps 753 mmHg 63%
    08:00 +11°C° 0 mm 4 mps 753 mmHg 56%
    09:00 +13°C° 0 mm 4 mps 754 mmHg 49%
    10:00 +14°C° 0 mm 5 mps 754 mmHg 42%
    11:00 +15°C° 0 mm 5 mps 754 mmHg 40%
    12:00 +16°C° 0 mm 5 mps 754 mmHg 37%
    13:00 +17°C° 0 mm 5 mps 753 mmHg 34%
    14:00 +17°C° 0 mm 5 mps 753 mmHg 34%
    15:00 +17°C° 0 mm 5 mps 753 mmHg 34%
    16:00 +17°C° 0 mm 5 mps 753 mmHg 34%
    17:00 +15°C° 0 mm 4 mps 753 mmHg 40%
    18:00 +13°C° 0 mm 3 mps 754 mmHg 47%
    19:00 +11°C° 0 mm 3 mps 754 mmHg 53%
    20:00 +10°C° 0 mm 2 mps 754 mmHg 56%
    21:00 +9°C° 0 mm 2 mps 755 mmHg 59%
    22:00 +8°C° 0 mm 2 mps 755 mmHg 62%
    23:00 +8°C° 0 mm 2 mps 755 mmHg 65%

    Day after tomorrow, 20 September, Friday

    Time Temperature Precipitation Wind Pressure Humidity
    00:00 +8°C° 0 mm 2 mps 755 mmHg 67%
    01:00 +7°C° 0 mm 2 mps 755 mmHg 70%
    02:00 +7°C° 0 mm 2 mps 755 mmHg 73%
    03:00 +7°C° 0 mm 2 mps 755 mmHg 75%
    04:00 +6°C° 0 mm 2 mps 755 mmHg 78%
    05:00 +7°C° 0 mm 2 mps 755 mmHg 75%
    06:00 +8°C° 0 mm 2 mps 755 mmHg 73%
    07:00 +9°C° 0 mm 2 mps 755 mmHg 70%
    08:00 +12°C° 0 mm 2 mps 755 mmHg 62%
    09:00 +14°C° 0 mm 2 mps 755 mmHg 54%
    10:00 +16°C° 0 mm 2 mps 756 mmHg 47%
    11:00 +17°C° 0 mm 2 mps 755 mmHg 42%
    12:00 +18°C° 0 mm 2 mps 755 mmHg 38%
    13:00 +19°C° 0 mm 2 mps 754 mmHg 33%
    14:00 +20°C° 0 mm 1 mps 754 mmHg 32%
    15:00 +20°C° 0 mm 1 mps 754 mmHg 31%
    16:00 +20°C° 0 mm 1 mps 753 mmHg 31%
    17:00 +18°C° 0 mm 1 mps 753 mmHg 35%
    18:00 +15°C° 0 mm 1 mps 754 mmHg 40%
    19:00 +13°C° 0 mm 1 mps 754 mmHg 45%
    20:00 +13°C° 0 mm 1 mps 754 mmHg 47%
    21:00 +12°C° 0 mm 1 mps 754 mmHg 49%
    22:00 +11°C° 0 mm 1 mps 754 mmHg 51%
    23:00 +11°C° 0 mm 1 mps 754 mmHg 53%

    21 September, Saturday

    Time Temperature Precipitation Wind Pressure Humidity
    00:00 +10°C° 0 mm 1 mps 754 mmHg 54%
    01:00 +10°C° 0 mm 1 mps 754 mmHg 55%
    02:00 +10°C° 0 mm 1 mps 754 mmHg 56%
    03:00 +9°C° 0 mm 1 mps 754 mmHg 57%
    04:00 +9°C° 0 mm 1 mps 754 mmHg 58%
    05:00 +9°C° 0 mm 2 mps 754 mmHg 57%
    06:00 +9°C° 0 mm 2 mps 754 mmHg 55%
    07:00 +10°C° 0 mm 2 mps 754 mmHg 54%
    08:00 +12°C° 0 mm 3 mps 754 mmHg 47%
    09:00 +15°C° 0 mm 4 mps 754 mmHg 40%
    10:00 +18°C° 0 mm 4 mps 754 mmHg 34%
    11:00 +20°C° 0 mm 4 mps 753 mmHg 31%
    12:00 +21°C° 0 mm 5 mps 753 mmHg 29%
    13:00 +22°C° 0 mm 5 mps 753 mmHg 27%
    14:00 +22°C° 0 mm 5 mps 752 mmHg 27%
    15:00 +22°C° 0 mm 5 mps 752 mmHg 27%
    16:00 +21°C° 0 mm 5 mps 751 mmHg 28%
    17:00 +19°C° 0 mm 4 mps 751 mmHg 34%
    18:00 +17°C° 0 mm 3 mps 751 mmHg 39%
    19:00 +13°C° 0 mm 3 mps 751 mmHg 45%
    20:00 +13°C° 0 mm 3 mps 751 mmHg 47%
    21:00 +12°C° 0 mm 3 mps 751 mmHg 50%
    22:00 +11°C° 0 mm 3 mps 751 mmHg 52%
    23:00 +11°C° 0 mm 3 mps 751 mmHg 52%

    22 September, Sunday

    Time Temperature Precipitation Wind Pressure Humidity
    00:00 +10°C° 0 mm 3 mps 750 mmHg 52%
    01:00 +10°C° 0 mm 3 mps 750 mmHg 52%
    02:00 +10°C° 0 mm 3 mps 750 mmHg 52%
    03:00 +9°C° 0 mm 3 mps 749 mmHg 52%
    04:00 +9°C° 0 mm 3 mps 749 mmHg 51%
    05:00 +10°C° 0 mm 3 mps 749 mmHg 50%
    06:00 +10°C° 0 mm 3 mps 748 mmHg 49%
    07:00 +11°C° 0 mm 3 mps 748 mmHg 48%
    08:00 +13°C° 0 mm 4 mps 748 mmHg 45%
    09:00 +15°C° 0 mm 4 mps 748 mmHg 42%
    10:00 +19°C° 0 mm 4 mps 748 mmHg 40%
    11:00 +20°C° 0 mm 4 mps 747 mmHg 40%
    12:00 +22°C° 0 mm 4 mps 747 mmHg 40%
    13:00 +23°C° 0 mm 4 mps 746 mmHg 40%
    14:00 +23°C° 0 mm 4 mps 746 mmHg 41%
    15:00 +24°C° 0 mm 3 mps 746 mmHg 43%
    16:00 +24°C° 0 mm 3 mps 745 mmHg 44%
    17:00 +21°C° 0 mm 2 mps 745 mmHg 51%
    18:00 +19°C° 0 mm 2 mps 745 mmHg 57%
    19:00 +18°C° 0 mm 1 mps 745 mmHg 64%
    20:00 +18°C° 0 mm 1 mps 745 mmHg 69%
    21:00 +16°C° 0 mm 1 mps 745 mmHg 74%
    22:00 +16°C° 0 mm 2 mps 745 mmHg 80%
    23:00 +15°C° 0 mm 1 mps 745 mmHg 82%

    23 September, Monday

    Time Temperature Precipitation Wind Pressure Humidity
    00:00 +15°C° 0 mm 1 mps 744 mmHg 85%
    01:00 +15°C° 0 mm 1 mps 744 mmHg 88%
    02:00 +14°C° 0 mm 1 mps 744 mmHg 88%
    03:00 +14°C° 0 mm 1 mps 744 mmHg 89%
    04:00 +14°C° 0 mm 1 mps 744 mmHg 90%
    05:00 +14°C° 0 mm 1 mps 744 mmHg 87%
    06:00 +15°C° 0 mm 1 mps 744 mmHg 84%
    07:00 +15°C° 0 mm 1 mps 744 mmHg 81%
    08:00 +18°C° 0 mm 1 mps 744 mmHg 73%
    09:00 +19°C° 0 mm 2 mps 744 mmHg 65%
    10:00 +20°C° 0 mm 2 mps 745 mmHg 57%
    11:00 +21°C° 0 mm 3 mps 744 mmHg 55%
    12:00 +22°C° 0 mm 3 mps 744 mmHg 53%
    13:00 +23°C° 0 mm 4 mps 744 mmHg 51%
    14:00 +21°C° 0.2 mm 5 mps 744 mmHg 58%
    15:00 +20°C° 0.2 mm 5 mps 744 mmHg 65%
    16:00 +17°C° 0.2 mm 6 mps 745 mmHg 73%
    17:00 +17°C° 0.5 mm 6 mps 745 mmHg 76%
    18:00 +16°C° 0.5 mm 5 mps 745 mmHg 80%
    19:00 +15°C° 0.5 mm 5 mps 745 mmHg 83%
    20:00 +15°C° 0.2 mm 5 mps 746 mmHg 83%
    21:00 +15°C° 0.2 mm 5 mps 746 mmHg 83%
    22:00 +15°C° 0.2 mm 4 mps 746 mmHg 84%
    23:00 +14°C° 0.5 mm 4 mps 746 mmHg 86%
    Show more